Theta_e
300 300 300 300 301 302 302 302 302 301 301 303 306 311 315 315 315 314 310 309 311 315 315 312 312 313 312 311 311 310 310 310 309 308 309 310 310 310 310 310 310 309 309 310 310 310 310 310 310 311 311 311 312 311 311 312 311 311 312 312 312 312 311 311 312 312 311 311 311 310 310 310 309 307 306 306 307 306 306 308 308 308 308 306 305 306 307
300 300 300 300 301 302 302 302 302 301 300 300 304 313 314 313 315 315 311 310 312 314 313 312 312 312 313 313 312 311 311 310 308 308 309 310 310 310 310 310 309 309 309 310 310 310 311 311 311 311 311 311 312 312 312 312 312 312 313 312 311 312 312 312 313 314 313 314 313 311 311 310 309 309 308 307 306 307 307 307 307 308 308 307 307 307 308
300 300 300 301 301 301 302 303 302 302 300 300 305 313 314 313 315 315 313 312 312 312 311 312 312 312 313 313 312 312 312 310 308 307 307 309 309 309 310 309 309 309 309 309 309 310 311 312 311 311 311 312 311 312 312 312 311 312 313 313 311 312 313 313 314 316 316 315 315 314 313 311 310 310 309 308 307 306 307 308 308 308 308 307 307 308 308
300 300 300 301 301 301 302 303 303 302 301 301 305 312 313 314 314 313 313 313 313 312 311 312 312 311 311 312 312 313 312 311 309 307 307 309 309 309 309 309 309 310 309 309 310 310 310 311 312 312 312 312 311 312 312 312 312 314 315 314 312 313 314 313 313 315 315 314 314 314 313 313 313 311 310 309 308 307 307 308 308 308 308 307 307 307 307
300 300 300 301 301 301 301 302 303 303 302 303 306 313 314 313 313 313 312 313 313 313 312 312 312 312 312 312 313 313 312 312 310 308 308 308 308 308 309 309 310 310 309 309 310 310 310 312 312 312 312 312 312 312 312 312 314 315 315 314 313 314 315 314 314 314 313 312 312 312 312 313 313 313 312 310 309 308 308 308 308 308 308 308 308 308 308
300 300 301 301 301 301 301 302 303 303 304 305 308 314 314 313 313 313 311 312 313 313 312 312 312 313 312 312 313 313 312 312 312 309 307 308 308 309 309 309 309 309 309 309 309 310 311 312 312 312 312 312 312 312 312 313 314 314 314 313 314 315 315 315 315 315 314 313 312 312 312 312 312 313 313 312 310 309 309 308 308 308 308 309 310 311 311
300 300 301 301 300 301 301 301 303 303 305 308 310 314 314 313 313 313 311 312 314 313 312 312 312 313 313 312 313 313 312 312 311 308 308 309 309 310 310 310 309 310 309 309 310 311 311 312 312 312 312 312 313 313 314 314 313 313 314 314 314 315 315 315 315 316 315 315 314 314 314 313 313 314 314 312 311 311 310 309 308 308 308 309 309 310 311
300 301 301 301 300 301 301 301 302 303 306 310 311 312 312 311 311 311 311 313 313 313 313 313 313 314 313 313 313 313 312 312 310 309 309 310 310 309 310 310 309 309 309 309 310 310 311 311 312 312 312 312 312 313 314 314 313 313 314 314 314 315 315 315 315 317 317 316 316 316 315 314 315 315 314 313 312 312 311 311 310 309 309 309 310 311 311
300 301 301 301 300 301 300 300 301 303 306 310 312 310 310 310 309 309 311 313 313 313 314 313 313 314 313 312 312 312 312 311 310 310 309 309 309 309 309 309 309 309 310 310 310 310 310 310 310 310 311 311 311 312 312 312 313 313 314 314 315 315 315 315 316 317 318 317 317 317 315 315 316 317 317 315 314 314 313 312 311 310 311 311 311 311 311
300 301 301 301 301 300 300 300 300 302 305 309 311 309 309 310 309 309 311 313 313 313 314 314 314 313 312 312 311 311 311 310 309 310 309 308 308 308 308 309 309 309 310 310 310 310 309 309 309 309 310 310 311 311 311 312 312 313 313 314 314 315 315 315 316 317 318 317 317 317 317 318 319 319 318 316 316 316 315 315 313 313 314 314 313 312 313
300 301 301 301 301 300 300 300 299 301 304 306 309 309 307 307 309 310 311 313 313 313 314 314 314 313 312 312 311 310 310 310 310 310 309 309 308 308 308 309 309 309 310 310 309 308 307 308 309 310 311 311 311 311 312 312 312 313 314 314 314 315 315 316 317 317 317 317 317 318 320 320 319 318 315 315 316 316 316 316 316 316 316 315 314 313 314
300 301 301 301 301 300 300 300 299 300 302 304 307 307 305 304 307 310 312 313 313 314 314 314 314 313 313 313 312 311 311 310 310 309 309 309 309 308 308 309 310 310 309 308 307 307 309 311 312 313 312 313 313 313 313 314 314 315 315 315 315 315 316 316 317 317 317 318 318 320 321 319 316 315 314 314 315 314 314 315 315 315 315 314 312 313 314
300 301 301 301 301 300 300 300 299 299 301 303 306 306 304 303 307 310 311 312 313 314 313 314 313 313 313 312 311 311 310 310 310 310 310 310 309 309 309 308 308 308 308 307 307 309 311 313 314 314 314 314 315 315 315 316 316 316 315 315 316 316 317 317 316 317 318 318 319 322 321 316 313 313 314 314 313 313 313 314 315 314 315 315 314 316 317
300 301 301 301 301 301 300 300 300 299 300 302 304 304 303 304 306 308 309 310 312 313 313 313 313 313 312 312 311 310 311 311 311 310 310 310 309 309 309 307 307 308 307 307 308 311 313 313 313 313 313 314 316 317 317 316 316 315 315 315 316 317 318 317 317 317 317 319 320 321 320 318 316 315 314 313 312 312 313 314 314 314 316 317 318 319 319
301 301 301 301 302 301 301 301 300 300 299 300 302 304 304 304 305 306 308 308 310 312 313 313 312 311 311 311 311 311 311 311 311 310 310 310 310 309 308 307 307 308 307 308 310 312 312 312 313 314 314 314 315 317 317 315 314 314 315 315 316 316 317 318 318 317 316 318 319 319 320 320 317 314 314 313 314 314 313 313 314 316 318 318 319 320 320
301 301 302 302 302 302 302 301 301 300 299 300 302 304 304 303 303 304 306 307 308 311 312 311 311 310 310 311 311 311 311 310 309 310 310 310 309 308 307 307 307 308 308 308 311 311 311 311 312 313 313 314 315 316 315 314 314 314 314 315 315 315 315 317 317 316 315 316 318 319 320 319 316 314 314 313 314 314 315 316 318 318 317 317 318 320 321
302 302 303 303 303 302 303 302 301 301 300 300 302 304 304 303 303 303 306 307 307 309 309 308 309 310 310 310 310 310 309 309 309 309 308 309 309 308 307 306 307 308 308 309 311 311 310 311 311 312 313 313 313 314 314 313 315 315 314 315 315 315 315 314 314 315 315 315 316 317 318 317 315 314 313 312 313 314 317 320 319 317 317 317 319 321 321
303 304 304 304 304 304 304 304 303 302 301 300 301 303 304 303 302 303 305 305 305 307 308 308 308 308 309 309 308 308 308 307 307 307 307 308 308 307 306 306 307 308 308 309 310 310 309 310 311 312 312 311 312 314 313 313 315 315 314 315 315 315 314 314 313 314 315 315 316 316 316 316 315 315 313 312 313 316 318 319 318 316 317 319 320 321 321
305 306 306 306 306 306 306 306 304 303 302 300 301 302 303 303 303 303 303 304 304 306 307 307 308 308 308 308 307 307 307 306 306 307 308 308 308 306 305 306 307 308 308 309 309 309 309 310 311 311 311 311 311 313 313 313 314 315 314 315 316 315 315 314 314 314 315 314 315 316 316 316 315 314 312 312 314 316 316 316 316 317 318 319 320 321 321
306 307 307 307 307 307 307 307 306 304 302 301 300 301 303 303 303 303 303 304 304 304 305 307 308 308 308 307 307 307 307 307 307 307 307 307 307 306 307 308 307 307 307 308 308 309 308 309 310 310 310 311 311 312 312 313 314 314 314 314 315 315 314 314 313 314 315 315 316 318 318 317 315 314 312 311 313 314 315 315 316 317 317 318 319 320 321
307 307 307 307 307 307 307 307 307 305 303 302 300 301 302 302 302 302 303 303 303 303 305 307 307 307 307 308 307 307 307 307 307 307 306 306 306 306 307 307 306 306 306 307 308 309 309 308 309 309 309 310 311 311 312 312 314 314 313 314 315 314 314 314 313 314 316 317 317 318 318 316 315 315 313 313 313 314 314 315 316 317 317 317 318 318 319
306 307 308 308 308 308 308 308 307 306 304 303 301 301 301 302 302 302 302 302 302 302 304 305 304 304 305 306 306 306 307 307 306 306 305 305 305 305 306 306 307 307 306 306 307 308 308 308 308 308 309 310 311 311 311 312 313 314 313 314 314 314 314 314 313 314 315 316 315 316 315 313 313 315 315 314 313 314 314 314 315 316 317 317 317 317 318
307 307 308 309 309 309 309 309 308 306 304 303 302 301 301 302 302 302 302 302 302 302 302 303 303 305 306 307 307 306 306 306 306 306 305 304 304 305 306 306 307 306 306 306 306 306 307 307 307 308 309 310 310 311 311 312 313 314 313 313 314 313 313 313 313 313 313 314 314 314 313 311 312 314 314 314 313 313 314 314 315 316 316 316 316 317 316
307 308 309 309 310 310 310 309 308 306 305 304 302 302 301 301 301 301 301 302 302 302 303 304 304 306 308 308 307 307 306 306 305 305 305 305 304 305 307 307 307 306 307 307 306 306 306 306 307 307 308 309 310 310 311 312 313 314 313 313 313 313 312 312 312 312 312 313 313 313 311 310 311 312 313 313 313 314 314 314 315 316 317 316 316 317 316
308 308 309 309 310 310 310 309 308 306 305 304 303 302 302 301 301 301 301 302 301 302 303 305 306 307 308 307 306 306 306 306 305 305 305 305 305 305 306 307 307 306 306 306 306 306 305 306 307 308 309 309 310 310 310 311 312 313 313 313 312 312 312 311 311 311 311 311 311 310 310 310 311 311 312 313 313 313 314 315 316 317 317 317 317 318 317
308 308 308 309 309 309 310 309 308 306 305 304 304 303 302 302 301 301 301 301 301 302 303 304 306 308 308 307 307 308 308 307 306 305 305 305 305 305 305 306 306 306 306 306 306 305 305 305 306 307 308 309 310 310 310 310 311 313 314 312 311 311 312 311 311 311 311 310 310 309 309 310 310 310 311 312 312 312 312 313 315 316 317 317 318 319 318
308 308 308 309 309 310 310 309 308 306 306 305 304 304 303 302 301 301 301 301 303 304 304 304 307 308 308 308 308 308 307 306 305 305 305 305 305 305 305 305 305 305 306 306 306 305 305 305 306 308 309 309 309 309 310 311 312 314 314 312 310 311 311 310 310 311 311 310 309 309 310 310 310 310 311 311 311 311 311 312 313 314 316 317 317 318 319
308 308 308 309 309 310 310 308 307 306 306 305 304 304 303 302 302 301 301 301 302 304 304 304 305 306 307 308 308 307 307 305 304 305 305 305 305 305 306 306 305 305 306 306 306 306 306 306 308 308 308 309 309 310 310 310 311 314 314 311 309 310 309 309 309 310 310 309 309 309 309 310 310 311 311 311 310 310 311 311 312 314 315 315 314 315 317
308 308 309 310 310 310 309 308 307 306 305 305 304 304 303 303 302 301 301 300 301 302 302 301 303 305 307 309 309 308 307 306 305 305 305 305 306 306 306 306 306 305 306 306 305 305 306 306 307 307 308 309 309 309 309 310 311 313 312 310 309 308 308 308 308 308 308 308 308 308 309 310 311 311 311 310 310 310 310 311 312 313 314 313 312 313 314
308 309 310 310 310 309 308 307 307 306 305 304 304 303 302 302 302 301 301 300 301 301 300 301 303 305 306 307 308 308 307 305 305 305 305 306 306 307 307 307 306 306 306 305 305 305 306 306 306 307 308 309 309 309 309 310 312 311 311 309 309 308 307 307 307 308 308 308 308 308 309 310 311 310 310 311 311 310 310 311 312 314 314 313 312 312 313
309 310 311 310 309 309 308 307 307 306 304 304 304 302 301 302 303 302 301 300 301 301 300 300 302 303 304 307 308 308 306 306 306 306 307 306 307 307 307 306 306 306 306 305 305 305 305 306 307 308 309 309 308 309 309 310 312 312 310 309 308 308 307 307 307 307 307 307 307 307 309 310 310 310 309 310 310 310 310 311 312 314 314 313 312 312 313
310 310 310 310 309 308 307 307 306 305 304 304 304 302 302 303 303 302 301 300 301 301 300 301 303 304 305 308 310 308 307 307 306 306 307 307 307 308 307 307 307 307 306 305 305 305 306 306 307 308 309 309 308 309 310 311 312 312 310 308 308 307 306 306 306 307 307 306 306 307 309 309 309 309 309 309 310 310 310 311 312 313 314 314 313 313 313
310 310 309 309 308 307 307 306 306 305 304 304 303 302 302 302 302 301 301 301 301 301 300 301 303 305 306 308 310 309 307 306 306 307 307 308 308 308 307 307 307 307 306 306 305 306 306 307 307 307 309 310 309 309 310 311 311 310 309 308 307 307 306 306 306 306 306 305 306 307 308 308 308 308 309 309 310 309 310 310 311 312 312 312 312 312 312
309 309 308 308 307 306 306 306 305 304 304 303 302 302 301 301 301 301 301 301 301 300 300 300 302 304 306 308 309 308 306 306 307 307 308 309 309 308 307 307 307 306 306 306 306 306 307 307 307 308 309 310 310 310 310 310 310 309 308 307 307 306 305 305 305 305 304 304 306 306 307 307 308 308 309 308 309 309 310 310 310 310 310 310 310 311 312
309 308 307 307 306 306 305 305 304 304 304 303 302 302 301 301 301 301 301 301 301 300 299 300 301 304 306 308 309 308 306 305 307 307 307 309 309 308 307 307 307 307 307 307 306 306 307 307 307 308 308 309 309 310 310 309 309 308 307 307 306 305 305 305 304 304 303 304 305 305 305 306 306 307 307 307 307 308 309 309 308 308 309 310 309 309 310
308 307 306 306 306 305 305 304 304 304 303 303 302 302 301 301 301 301 301 301 301 301 301 302 302 304 307 308 308 307 306 306 307 307 307 307 307 307 307 306 306 307 308 308 307 307 308 308 308 308 308 308 309 309 309 309 308 307 306 305 304 304 303 303 303 303 303 304 304 305 304 304 305 305 306 306 306 306 307 307 307 307 308 309 309 308 309
306 306 305 305 305 304 304 304 304 303 303 302 301 301 300 300 300 300 300 300 300 301 301 302 303 304 306 307 307 307 306 306 307 307 307 306 306 307 306 306 306 307 308 308 307 307 308 309 309 309 309 309 309 308 308 307 306 306 305 304 303 303 302 302 302 302 303 303 304 303 303 303 304 304 305 305 305 306 306 306 306 306 307 308 308 308 309
305 305 304 304 304 303 303 303 303 303 302 301 300 300 300 300 299 299 299 300 300 300 301 301 302 304 305 306 307 307 306 307 307 307 307 306 306 306 306 306 306 306 306 307 307 308 308 308 308 308 308 309 308 307 307 306 305 305 304 302 302 302 302 302 302 303 303 303 303 303 302 303 303 303 304 304 304 305 305 305 305 306 307 307 307 308 310
304 304 304 305 304 303 303 303 302 302 301 300 300 300 299 299 299 300 299 299 300 301 301 301 302 304 304 306 307 307 306 307 307 306 306 306 305 306 306 306 306 306 305 306 307 308 308 307 308 308 308 309 308 307 306 305 305 304 302 302 302 303 302 302 302 303 303 303 302 302 302 302 302 302 303 303 303 304 304 305 305 305 306 306 306 308 309
304 304 304 304 303 302 302 302 301 301 300 299 299 299 299 299 300 301 301 301 301 301 302 303 304 304 305 306 306 307 307 306 306 306 307 307 306 306 306 305 305 306 305 306 307 307 307 307 307 308 308 309 308 307 305 305 304 303 302 303 303 304 303 303 303 303 303 303 303 303 303 303 302 302 302 302 302 303 303 304 304 304 305 305 305 306 306
304 304 303 302 302 301 301 300 300 299 298 298 298 300 300 300 301 301 301 303 304 303 303 304 305 305 305 306 306 307 307 306 306 306 306 306 306 306 305 305 305 305 305 305 306 307 307 306 307 307 308 308 308 306 305 304 304 303 302 303 304 303 303 303 303 303 303 303 303 303 303 302 303 303 302 302 303 302 302 303 303 303 304 304 304 304 304
304 304 302 302 301 301 300 299 298 298 298 299 300 301 301 302 302 302 302 303 305 306 305 306 306 307 307 306 306 306 307 306 306 305 305 305 306 305 305 305 305 305 305 306 306 306 306 306 307 308 308 308 307 305 305 304 303 302 302 303 303 303 303 303 303 303 303 302 302 302 302 302 302 302 302 302 302 302 302 302 302 302 302 303 303 303 302
303 302 301 300 299 298 299 298 298 299 300 300 301 303 303 303 303 303 303 304 304 306 307 307 307 307 307 306 306 306 307 306 305 305 304 305 305 304 304 304 304 305 306 306 305 305 306 306 307 308 308 307 306 305 304 304 303 302 302 303 302 302 302 303 302 302 302 302 302 302 302 302 302 302 301 301 301 301 301 301 301 301 302 302 302 302 301
301 299 298 297 297 298 300 300 299 300 302 302 302 304 305 305 304 304 305 305 305 306 307 307 306 307 306 306 306 306 306 305 305 304 304 305 304 304 304 304 304 305 306 305 305 305 306 306 306 307 307 306 305 304 304 303 302 302 302 302 302 302 302 302 302 302 302 302 302 302 301 301 301 301 301 301 300 300 300 300 300 300 300 301 301 301 300
300 298 298 299 299 299 301 302 301 301 303 304 303 304 306 307 305 305 306 306 306 306 306 306 306 306 306 306 306 305 305 304 304 304 304 304 304 304 304 304 304 304 305 305 305 305 306 306 306 306 306 305 304 304 303 302 302 302 302 302 302 302 302 302 302 302 302 302 302 301 301 301 301 301 301 300 300 299 299 299 299 299 299 300 300 299 299
299 298 299 301 301 300 301 303 303 302 303 304 304 304 306 308 308 308 308 307 307 306 306 306 306 306 306 306 305 305 305 304 304 304 304 304 304 304 304 304 304 304 304 304 305 305 305 306 306 306 306 305 304 303 303 302 302 302 302 301 301 301 302 302 302 302 301 301 301 301 300 300 300 300 300 300 299 298 298 298 298 298 298 298 298 298 298
299 298 299 302 303 301 301 303 304 304 304 305 305 305 308 310 310 309 307 306 306 306 305 306 306 306 306 305 305 305 304 304 304 304 304 304 304 304 304 303 303 304 304 305 305 305 305 306 306 306 305 305 304 303 302 302 302 302 301 301 300 301 301 302 301 301 300 300 300 300 300 300 300 299 299 299 299 298 297 297 297 297 297 297 297 296 296
299 298 300 303 305 303 302 303 304 304 304 305 305 306 308 310 309 307 305 305 305 306 306 306 306 306 306 305 305 305 304 304 304 304 304 303 304 304 304 304 303 304 304 304 305 305 305 306 306 306 305 304 303 303 302 302 302 301 301 300 300 300 300 301 300 300 299 299 299 299 299 299 299 299 299 299 298 298 297 297 297 297 296 296 296 296 295
298 298 300 302 304 303 303 304 305 305 305 304 305 306 307 307 307 307 306 305 304 305 305 305 305 305 305 305 304 304 305 304 304 304 304 304 304 303 304 304 304 304 304 304 305 305 306 306 306 305 305 304 303 303 302 302 301 301 301 300 300 300 300 300 299 299 298 298 298 297 297 297 298 298 298 298 297 297 297 296 296 296 295 295 295 295 294
298 299 300 301 303 304 304 304 304 305 305 304 304 305 306 306 306 306 305 304 304 305 305 304 304 304 304 304 304 304 304 304 304 304 304 304 304 304 304 304 305 305 305 305 305 305 306 305 305 304 304 303 302 302 302 301 301 301 301 301 300 299 299 298 298 298 297 297 296 296 296 296 296 296 296 296 296 296 296 296 295 295 295 294 294 294 294
297 298 300 302 303 304 304 304 305 306 305 305 305 305 306 305 305 305 305 304 304 304 304 304 303 303 304 304 304 304 304 304 304 304 304 304 304 304 304 305 305 304 304 305 305 305 305 305 304 304 303 303 302 302 302 301 301 301 301 300 299 299 298 298 298 297 297 297 296 296 296 296 295 295 295 295 295 295 296 296 295 294 294 294 294 293 293
298 299 301 302 302 303 303 304 305 306 306 306 307 307 306 306 305 305 304 304 304 304 304 304 303 303 304 304 304 304 304 304 304 304 304 304 304 304 304 304 304 304 305 305 305 305 305 304 304 304 303 302 302 302 302 302 301 301 300 299 299 298 298 298 297 297 296 296 296 295 295 295 295 294 294 294 294 295 295 295 294 294 294 294 293 293 293
Wind_Speed
18 18 19 20 21 22 23 25 26 28 29 24 19 13 5 4 4 3 7 14 11 7 4 4 4 4 4 4 2 2 4 6 7 7 5 3 2 4 5 7 7 8 9 9 11 11 9 9 9 9 11 10 10 12 9 8 9 6 6 7 1 3 2 6 10 10 12 15 15 13 13 12 11 10 10 10 9 9 8 8 6 6 8 9 8 9 10
18 18 18 19 21 21 22 23 24 25 25 21 17 11 3 4 4 1 4 13 10 5 5 6 5 5 5 5 3 2 3 4 6 7 6 3 3 5 6 8 7 8 9 9 10 11 8 6 9 11 11 10 12 12 7 7 9 6 4 3 2 2 3 4 7 10 9 7 5 5 7 8 7 8 10 11 13 13 11 9 7 7 10 12 9 9 9
17 18 18 18 19 21 21 22 23 23 22 18 12 7 5 4 3 1 2 7 7 3 4 6 5 7 8 7 7 6 2 0 2 6 7 4 4 6 6 8 9 8 9 10 10 11 8 7 10 11 11 11 11 10 9 11 10 5 5 2 4 3 5 4 6 9 8 7 6 4 4 5 7 9 11 12 13 14 12 8 8 9 12 14 10 9 9
15 17 18 17 18 20 20 21 22 21 20 17 11 8 6 4 3 4 3 2 3 3 2 5 5 7 9 7 7 9 8 3 1 3 5 2 2 7 8 8 8 8 10 12 11 11 10 9 9 10 11 10 9 11 15 12 5 5 6 3 6 4 5 8 10 10 9 10 11 12 10 10 11 11 13 13 13 14 12 9 9 9 9 11 11 13 13
14 16 17 17 17 19 20 20 21 19 15 14 10 8 5 3 3 5 5 3 4 3 3 7 6 6 8 6 6 10 11 7 3 2 3 1 3 6 6 6 6 8 11 12 11 12 13 12 11 12 13 11 11 14 15 7 3 3 4 5 6 5 6 10 12 13 15 16 17 18 15 14 16 16 15 14 12 13 13 12 13 12 9 9 11 13 13
13 15 17 16 16 18 19 18 19 18 12 10 10 6 2 4 3 3 3 3 4 6 6 8 7 6 8 6 7 10 12 10 7 5 5 5 5 4 3 5 7 10 12 11 11 13 13 12 12 13 13 13 13 13 11 4 2 3 2 3 4 5 8 11 12 12 14 17 19 19 15 15 17 16 16 16 14 14 14 16 17 14 12 12 13 14 14
12 14 16 16 16 17 18 18 19 16 11 8 9 6 3 3 2 2 1 3 5 6 7 8 7 4 3 5 8 10 11 11 10 8 7 7 6 4 5 8 9 11 12 10 10 12 12 12 13 13 14 15 13 10 7 2 2 6 6 2 2 3 6 11 13 13 14 15 16 17 16 15 16 15 16 16 16 16 15 16 17 17 18 18 19 21 19
11 12 14 15 15 15 17 18 17 16 12 8 7 6 5 4 4 3 2 4 5 5 4 6 7 3 3 6 10 10 11 12 11 9 9 9 8 7 10 12 12 13 12 10 10 12 12 14 15 16 16 14 10 7 6 5 7 9 7 4 3 2 5 9 12 12 12 10 9 11 13 13 15 15 14 15 16 16 15 15 15 16 18 19 20 21 19
10 11 13 15 15 15 16 17 17 15 13 10 6 6 5 5 3 4 6 4 4 5 4 4 6 6 6 7 10 10 11 13 12 11 10 9 10 10 11 13 13 12 12 10 11 13 14 16 18 18 16 13 10 8 7 9 10 9 7 7 5 3 5 9 10 9 9 8 9 9 10 11 13 12 10 11 13 13 13 14 14 14 16 17 18 16 13
10 10 11 13 14 14 15 16 16 14 13 11 8 6 7 6 1 6 8 5 4 6 6 6 6 6 6 7 9 10 12 14 13 10 7 6 9 9 10 12 12 11 12 11 12 14 17 19 19 17 14 14 13 11 12 12 11 9 9 8 6 6 6 8 9 9 10 12 14 13 10 7 5 6 9 11 10 11 13 14 14 14 12 12 12 11 11
9 9 10 11 13 14 13 14 14 13 14 11 9 8 8 7 4 6 7 6 5 6 6 7 6 5 6 9 10 10 12 13 12 10 7 8 11 11 11 12 10 9 11 12 14 17 19 21 20 16 15 16 13 11 13 13 10 8 7 6 7 9 9 9 7 6 10 14 15 12 6 3 4 6 8 10 11 14 14 14 15 15 12 12 14 15 17
9 9 9 10 10 12 12 12 11 11 11 9 8 7 6 6 7 7 6 7 7 6 6 6 5 5 9 13 12 10 11 12 11 11 11 12 13 12 11 12 10 9 12 15 17 18 19 20 16 12 14 14 13 12 11 10 8 5 3 4 7 9 10 9 6 5 9 12 11 7 5 4 5 8 8 9 12 15 16 15 16 15 14 16 19 21 23
9 9 9 9 9 10 11 9 9 8 7 8 7 5 5 6 6 5 5 6 7 7 7 6 5 8 13 14 12 11 11 11 10 11 11 11 12 12 10 9 10 11 13 16 18 17 15 13 9 4 6 7 8 8 5 4 7 5 2 4 6 6 7 7 6 7 8 9 8 6 4 0 4 6 6 8 11 13 14 12 11 10 12 14 16 18 20
10 9 9 9 8 9 9 8 7 6 5 6 5 3 3 5 6 6 5 5 6 8 8 6 8 12 14 14 12 11 11 11 9 10 11 9 9 11 10 10 11 12 12 12 13 12 9 8 7 4 2 1 2 2 3 4 5 6 7 6 4 5 6 5 5 5 6 8 8 4 1 1 2 6 9 9 10 11 10 8 7 8 9 10 12 14 14
10 10 9 9 8 8 9 8 6 5 3 3 2 3 3 4 5 6 5 5 7 8 6 6 10 13 13 12 11 10 10 9 9 10 11 7 5 8 9 9 11 13 11 9 8 8 7 7 7 6 5 5 5 4 2 1 4 8 10 8 5 5 5 3 3 4 5 8 7 5 6 7 7 11 17 16 12 11 8 5 4 7 10 13 14 13 12
10 10 9 9 8 8 9 8 6 6 3 2 1 3 4 2 3 5 5 4 5 6 6 9 11 11 10 10 11 10 9 9 9 10 9 7 8 8 8 9 10 11 10 8 7 6 6 6 6 6 5 6 7 6 5 6 6 7 10 10 9 9 6 3 4 5 6 8 8 7 6 5 6 14 21 21 18 14 7 3 2 9 15 18 18 13 10
10 10 9 9 8 8 9 8 7 7 4 1 1 4 4 2 1 4 5 3 4 6 7 9 10 9 8 7 8 9 7 8 9 8 7 8 10 9 8 10 10 8 8 8 6 5 6 6 6 6 4 6 8 6 6 8 8 9 12 11 10 11 8 6 7 8 9 9 8 6 2 1 9 17 20 22 20 14 7 2 5 14 18 17 16 12 9
10 10 9 10 9 8 9 9 8 8 7 4 3 4 5 4 3 3 3 3 4 5 4 7 9 9 7 7 8 8 7 7 7 6 7 8 7 9 11 9 7 5 6 7 6 5 6 6 6 6 5 6 7 6 6 8 8 10 11 10 9 9 8 8 9 9 10 10 8 6 1 1 11 17 18 20 18 9 6 7 8 15 18 16 14 12 10
11 10 10 11 11 10 10 10 10 10 8 6 5 5 5 5 5 5 4 3 3 4 6 10 11 10 8 7 8 7 6 7 6 5 8 7 7 13 13 5 1 5 6 7 6 4 5 6 5 5 6 6 6 6 6 7 6 8 11 10 9 9 7 8 9 9 9 9 9 8 3 5 15 18 13 12 11 8 8 10 11 14 17 17 16 15 14
11 11 12 12 12 12 12 12 13 12 10 9 8 7 6 5 7 8 7 5 4 6 10 11 9 9 10 10 9 8 6 7 6 6 8 7 9 13 10 1 1 6 6 6 6 5 4 6 5 5 5 6 6 5 6 7 6 7 10 8 7 8 7 7 8 8 7 8 9 8 4 6 17 18 10 9 11 9 10 11 12 15 17 17 16 16 16
13 12 12 13 13 13 13 14 14 14 13 12 10 9 8 6 7 9 10 8 5 4 6 7 9 14 16 15 14 13 11 10 9 8 8 7 7 8 6 3 5 6 4 4 6 5 4 5 5 5 5 5 6 6 7 7 5 7 10 8 6 7 7 5 6 6 6 6 7 7 6 9 14 13 9 10 11 10 11 12 11 13 14 14 14 16 17
14 13 13 13 14 14 15 15 15 15 15 14 12 11 10 7 5 7 9 10 10 9 12 16 18 21 22 21 19 18 15 14 13 10 8 8 6 5 5 5 5 5 4 5 5 4 5 5 5 5 5 5 5 7 8 6 4 6 9 7 5 7 8 5 5 6 6 4 4 7 9 11 11 9 7 10 12 12 13 13 11 11 12 12 13 16 19
15 14 14 13 14 15 16 16 15 15 16 16 15 14 12 8 6 6 8 10 12 13 19 22 20 18 20 19 18 16 14 14 14 12 10 8 6 5 6 5 3 3 2 4 4 5 5 5 5 5 6 5 6 7 7 5 4 6 6 5 4 7 8 7 6 8 7 2 3 10 14 14 14 12 10 11 13 13 13 13 12 12 12 11 12 14 18
15 15 14 14 15 16 16 16 14 14 15 17 18 18 14 11 9 8 7 8 7 7 11 13 9 9 12 10 7 9 11 12 13 13 12 10 7 6 3 3 4 3 2 3 3 4 5 5 5 5 5 5 6 6 6 4 5 5 5 4 4 6 8 8 8 10 9 5 8 15 17 15 14 15 14 14 14 14 13 12 11 12 12 12 11 13 15
15 15 15 15 16 16 16 15 14 13 14 18 20 19 16 15 14 11 8 6 4 4 5 5 7 10 10 6 4 7 10 10 10 12 14 13 12 10 6 6 5 4 4 5 4 4 5 5 5 5 6 5 4 5 5 4 4 4 4 4 5 6 8 9 9 10 9 7 12 18 18 14 12 14 14 13 13 14 15 14 12 13 13 12 11 11 13
16 16 16 17 18 18 17 16 13 12 13 16 20 21 20 17 16 14 11 7 5 4 4 5 8 9 8 7 10 13 13 12 11 13 15 16 16 15 13 10 7 6 6 6 5 4 5 6 5 6 6 4 4 6 6 5 4 3 2 3 5 7 7 8 9 9 7 7 13 19 17 12 13 17 18 15 14 16 18 17 16 17 15 13 11 10 10
17 18 18 18 19 19 18 16 13 12 13 15 19 21 21 19 17 16 14 9 4 4 4 5 6 9 14 18 19 16 11 11 12 13 15 16 16 15 14 10 8 6 6 6 5 4 5 5 5 6 6 5 6 6 6 5 4 2 1 3 6 6 5 7 8 7 6 9 14 16 13 10 13 18 19 17 17 18 19 18 18 18 17 14 12 11 11
18 18 19 19 20 19 17 14 13 12 12 14 16 20 21 20 19 19 18 14 9 4 4 4 8 14 18 15 11 8 8 10 12 13 14 15 15 15 13 11 8 6 6 6 5 5 6 6 6 5 5 4 5 5 6 6 4 0 2 4 6 5 5 6 7 6 8 11 14 14 12 11 14 17 17 16 16 18 18 18 18 18 16 14 13 14 13
19 20 19 19 19 18 15 13 12 12 11 11 13 16 18 20 22 22 20 18 14 7 4 5 8 11 11 9 9 9 10 11 12 13 13 13 14 14 13 11 9 6 6 6 6 6 7 6 6 6 5 4 4 5 6 6 3 1 3 5 5 4 4 5 6 8 10 12 13 14 13 12 13 15 15 14 15 16 17 17 17 17 16 15 15 15 15
20 19 18 18 17 15 13 12 12 11 11 11 11 9 9 12 18 24 24 21 17 9 3 4 5 6 8 11 13 10 9 10 12 13 13 12 12 13 12 10 8 7 6 6 6 6 7 6 5 6 6 5 4 5 6 5 3 2 2 4 4 4 5 6 6 8 9 10 13 14 13 11 11 12 13 14 15 16 15 16 17 16 15 15 15 14 14
19 19 18 17 16 14 13 12 12 12 13 15 11 5 3 3 7 16 23 23 18 10 3 3 5 5 7 8 8 8 9 10 10 11 12 12 11 11 12 10 8 7 7 6 6 7 7 6 6 7 6 5 4 4 6 6 3 1 2 4 5 6 7 7 7 8 9 10 13 14 11 10 11 12 13 15 17 17 15 15 17 17 15 15 16 15 14
19 19 18 16 15 13 12 12 13 15 18 20 16 7 3 2 2 7 17 22 17 8 2 3 4 5 4 4 5 7 9 10 8 8 8 9 8 9 9 9 7 7 7 6 6 7 7 6 7 8 5 4 4 4 6 6 4 3 5 7 6 6 7 8 7 8 8 10 12 13 12 12 14 14 13 14 16 17 16 16 18 18 17 16 17 18 18
20 18 16 15 14 13 12 13 15 16 18 22 19 10 4 3 4 8 16 19 12 5 2 2 4 4 3 4 5 4 7 7 6 7 7 7 6 5 6 7 6 6 7 6 6 5 6 6 6 6 4 3 3 5 6 3 3 5 6 7 6 7 8 8 7 7 8 10 10 10 11 13 15 14 13 13 14 15 15 16 18 19 17 16 16 17 18
19 16 15 14 12 12 11 12 14 16 17 17 16 13 8 6 8 12 18 15 6 2 2 2 4 4 4 7 5 4 7 5 6 6 6 7 7 5 4 5 5 5 6 7 6 6 6 6 6 6 5 4 4 5 5 2 3 4 5 6 7 7 8 7 7 7 9 11 11 10 10 13 14 12 12 13 14 14 15 16 17 18 16 15 16 16 15
17 14 13 12 10 10 10 11 14 16 15 12 10 13 14 9 5 10 16 12 4 1 3 3 4 4 5 7 4 3 4 5 6 4 3 5 7 5 4 4 5 5 5 5 5 6 6 5 5 6 5 4 5 5 4 2 4 5 5 6 7 7 8 7 8 9 9 10 11 10 11 13 13 12 12 13 14 16 16 16 16 16 15 15 16 15 14
15 13 12 11 10 10 10 13 15 15 12 9 7 9 12 10 6 11 16 11 6 4 2 2 5 5 5 7 4 0 1 5 5 4 3 3 5 5 4 5 5 4 4 4 6 7 6 3 4 6 6 5 5 3 2 3 5 5 5 6 6 7 7 8 9 10 11 11 11 11 12 13 13 12 12 13 13 15 16 16 17 17 16 16 16 15 13
14 14 13 12 12 10 8 9 12 12 10 10 11 10 8 7 7 10 11 9 8 7 4 3 5 6 6 6 4 2 3 5 5 4 4 4 4 4 4 5 5 2 3 5 7 6 3 2 3 6 7 3 2 1 2 3 4 4 4 5 5 5 6 7 8 10 11 10 11 11 12 12 12 11 12 13 14 14 15 16 15 16 16 15 15 14 14
15 16 17 15 11 6 4 5 9 11 13 15 14 9 5 5 5 4 5 4 4 5 5 5 6 6 7 7 5 3 4 4 4 4 4 3 3 3 4 5 4 2 4 6 4 3 3 3 4 7 6 1 1 1 1 2 2 2 2 4 4 5 6 7 7 9 10 9 10 11 11 12 13 13 12 13 14 14 13 13 13 13 14 14 14 15 15
18 18 15 12 7 2 3 8 14 17 17 15 10 4 3 3 2 2 3 3 3 4 4 6 7 8 8 9 8 7 5 4 4 5 3 2 2 3 4 4 2 2 6 6 1 2 4 5 4 5 5 3 4 3 2 1 1 1 2 3 3 4 6 6 6 7 8 7 8 9 9 10 12 12 12 12 12 12 12 12 13 14 15 15 16 17 16
21 15 9 6 4 6 11 19 22 18 13 7 3 2 2 3 3 3 3 3 3 4 4 6 6 8 9 10 9 7 6 5 4 4 2 1 1 2 3 4 2 2 6 6 1 2 4 6 4 5 5 3 5 4 3 1 1 1 1 2 3 5 5 6 6 7 7 7 7 8 8 9 10 10 10 11 11 12 12 12 14 16 17 17 17 17 17
19 13 7 6 11 17 22 22 17 10 5 2 2 2 2 3 3 3 3 4 5 4 4 6 6 7 9 10 9 5 6 5 3 3 3 3 2 1 4 5 3 3 6 5 0 1 4 6 5 5 3 2 4 4 2 2 1 1 2 2 3 5 5 6 6 7 7 7 7 7 8 10 10 10 11 11 11 11 11 12 14 16 17 17 17 17 18
18 16 15 16 19 20 18 11 6 3 2 2 2 2 3 4 4 3 4 4 4 3 4 7 7 6 7 9 9 6 4 4 3 3 4 4 3 2 4 5 3 5 6 3 1 3 5 6 6 3 2 4 4 3 2 2 2 1 1 2 3 4 5 5 6 6 6 7 7 7 8 9 10 10 11 12 12 12 12 13 15 16 17 17 17 17 18
19 21 21 17 13 9 6 3 2 3 2 2 2 4 4 4 4 4 4 3 3 3 4 7 7 5 4 6 8 6 3 2 2 3 4 4 3 3 4 4 4 5 5 3 3 5 6 6 5 2 3 4 4 3 2 1 1 1 1 2 3 4 5 5 6 6 6 7 7 8 8 9 10 10 10 11 12 12 12 13 14 15 16 16 16 16 18
21 16 11 6 3 3 3 3 3 3 4 4 5 5 6 6 6 6 5 4 3 4 5 6 7 6 5 5 6 5 3 2 2 3 4 4 4 4 4 5 5 4 3 3 5 6 6 5 4 1 5 4 2 2 2 2 2 2 1 2 2 3 4 5 6 6 6 6 7 8 8 9 9 10 10 10 11 12 12 13 14 15 15 15 15 16 17
15 6 2 2 3 3 3 3 3 4 6 6 6 6 7 7 7 7 6 5 4 5 6 7 7 7 6 6 5 5 4 4 3 3 4 4 5 5 5 5 4 4 4 5 6 6 6 6 3 2 4 5 4 3 3 4 3 3 2 1 1 3 4 5 5 5 5 6 7 8 8 8 9 9 9 10 11 11 11 13 14 14 14 14 14 15 16
5 2 3 4 3 4 4 4 4 5 5 6 7 7 6 5 4 5 5 5 5 5 6 7 8 7 6 5 4 4 4 5 4 4 4 5 5 5 4 4 4 5 6 6 6 7 7 5 1 3 4 5 5 5 4 4 3 3 2 1 1 3 3 4 5 5 6 6 6 6 7 7 8 8 9 9 10 10 11 12 13 13 14 14 14 15 16
2 2 3 2 3 4 5 5 5 4 3 4 6 6 3 2 1 2 3 4 5 5 5 6 7 7 6 4 4 5 5 5 5 5 4 4 5 4 3 3 4 5 6 6 7 7 5 2 2 4 5 5 5 5 5 4 4 3 1 1 2 3 3 4 5 5 6 6 6 5 6 6 7 7 8 8 9 9 10 11 12 12 13 13 13 14 15
3 3 3 2 3 5 6 7 5 3 0 1 2 2 1 1 3 3 3 4 5 5 6 6 6 6 6 5 5 5 5 4 5 5 4 4 4 4 4 4 5 5 5 7 7 5 2 1 2 4 5 6 6 6 5 5 4 3 2 2 3 3 4 5 4 4 5 5 5 5 6 6 6 6 7 7 7 8 9 10 10 10 11 12 13 13 14
3 2 2 2 2 3 4 6 7 5 2 2 2 2 3 4 5 6 5 4 4 5 6 4 3 5 6 5 5 6 6 5 4 5 5 5 5 4 4 6 6 6 5 6 5 3 1 2 3 5 6 6 5 5 5 5 4 4 3 3 3 4 4 4 3 4 4 4 5 5 6 6 6 7 7 7 7 7 7 8 9 9 9 10 11 12 12
2 2 2 3 2 2 3 4 6 6 5 4 3 4 5 5 6 6 5 5 4 5 5 3 2 3 5 5 5 6 6 5 5 5 6 6 6 5 6 7 7 6 5 4 3 1 1 2 3 4 5 5 5 5 5 5 4 4 4 3 2 3 3 3 3 4 3 3 4 5 5 5 6 7 7 6 7 7 6 6 7 8 8 8 9 9 10
1 2 3 3 3 3 3 3 5 5 6 5 5 5 5 6 6 5 5 5 5 6 6 5 4 4 5 6 5 5 4 4 5 7 7 6 5 6 7 8 7 6 4 3 2 1 2 3 4 4 5 5 5 5 5 5 5 5 5 3 2 3 4 3 3 3 3 3 3 4 5 5 5 6 6 6 6 6 5 4 6 8 7 7 7 8 8
3 3 3 3 3 3 2 1 2 3 4 5 4 5 6 7 6 5 4 4 6 6 6 6 6 6 6 6 5 4 3 4 6 7 7 6 5 6 7 7 6 5 5 3 2 2 3 3 4 5 5 6 6 5 6 6 6 5 4 3 3 4 4 4 3 3 3 3 3 3 4 4 4 5 5 5 5 5 5 5 6 7 7 6 7 7 7
Wind_Direction
338 339 345 353 357 359 358 357 359 358 357 359 348 327 299 307 346 47 359 345 324 294 336 24 7 21 11 325 315 333 311 317 329 330 324 312 294 289 295 302 311 323 329 322 317 319 317 310 312 320 317 312 314 319 318 310 308 301 284 289 274 142 226 271 281 288 283 274 268 258 247 241 243 250 255 257 255 248 245 251 262 267 260 252 247 253 258
339 339 346 355 358 360 358 357 359 359 359 353 336 321 318 327 318 152 20 355 332 305 6 5 355 12 352 326 353 344 263 304 326 328 330 324 308 297 299 312 322 326 318 304 309 320 315 302 311 314 311 314 317 320 322 302 294 286 285 286 147 181 250 264 294 303 301 291 272 250 238 232 243 248 247 256 260 259 256 246 246 254 252 249 249 252 256
340 342 347 355 359 360 359 357 357 356 355 352 334 306 304 310 289 221 43 16 11 38 27 353 350 2 343 336 356 349 322 356 323 319 315 294 296 302 300 313 315 307 307 308 315 320 311 305 310 308 310 313 315 324 321 301 294 307 314 260 179 244 266 248 281 296 304 307 301 297 276 262 267 254 244 250 253 253 257 250 241 242 241 241 245 253 259
338 341 345 353 359 360 360 358 356 354 354 354 335 297 301 324 333 344 353 13 27 65 47 356 357 360 347 340 351 348 342 358 58 316 303 244 275 301 298 304 305 303 315 322 322 320 315 309 307 312 319 318 323 331 320 311 331 356 324 221 188 243 261 240 249 259 270 280 281 287 294 289 284 273 257 251 242 241 250 252 247 249 251 247 245 253 263
336 340 343 351 358 360 360 358 356 355 356 357 337 295 298 334 344 356 345 319 353 23 33 16 4 359 358 341 337 347 339 337 360 328 295 262 282 295 291 290 300 311 322 324 321 320 319 315 316 321 322 320 327 326 319 327 46 339 292 185 196 264 270 251 249 247 251 257 266 276 284 286 286 284 273 263 250 240 238 245 254 263 268 260 254 260 267
334 339 341 349 358 360 359 359 358 357 0 359 333 298 331 4 345 29 5 312 352 4 6 8 344 337 360 338 321 342 339 335 345 329 309 302 287 280 268 270 289 308 321 323 316 317 319 320 323 324 322 324 328 326 325 349 52 324 316 159 214 273 274 267 267 263 257 257 262 268 273 276 278 278 272 266 259 248 240 243 250 256 262 265 273 278 276
330 337 339 346 357 1 359 359 0 360 4 359 333 320 19 2 328 65 66 287 340 356 348 341 315 302 12 344 333 345 338 333 339 331 316 307 297 283 273 280 298 312 319 314 304 315 324 318 316 318 319 321 322 323 326 315 323 339 342 328 275 271 268 276 284 288 282 274 271 273 274 274 274 276 271 262 257 255 252 251 250 249 254 261 271 276 277
322 332 337 342 354 3 2 360 2 6 8 8 4 9 18 7 358 11 319 291 329 347 329 326 321 331 36 355 345 347 333 332 336 325 312 305 301 298 293 300 313 314 309 299 295 310 316 305 305 311 312 313 311 314 318 314 330 339 336 340 341 276 277 296 301 297 290 286 282 274 269 274 282 286 278 263 259 259 257 257 257 253 254 257 262 267 272
315 326 334 339 350 3 7 1 2 14 16 6 22 40 18 17 19 308 306 325 339 329 316 314 327 349 4 352 344 335 328 334 332 316 304 295 294 303 306 310 315 308 299 295 294 302 306 300 298 297 294 290 287 283 285 302 320 321 317 331 329 287 291 304 308 303 297 312 325 294 265 267 280 295 307 293 278 272 270 268 263 261 265 266 263 261 266
309 319 328 336 344 356 10 6 358 17 31 14 15 32 2 0 299 260 294 331 335 320 318 318 334 353 352 338 331 321 318 325 326 316 302 288 292 301 304 307 310 303 301 308 311 311 310 302 294 291 283 273 267 265 272 286 297 296 302 314 305 291 298 305 315 313 301 319 331 313 291 282 288 323 338 327 320 314 301 286 277 280 288 282 271 270 283
302 310 320 331 338 347 8 14 360 16 40 25 8 20 8 351 302 275 302 327 328 324 324 333 351 350 330 329 327 313 306 314 324 323 306 298 304 305 304 304 299 292 302 315 318 313 305 293 283 276 270 268 265 260 263 270 274 277 289 297 295 298 297 299 313 305 299 317 324 310 308 4 4 339 326 324 336 332 312 292 286 294 298 289 285 289 294
295 301 309 321 332 339 357 16 8 15 41 29 1 12 21 348 304 297 319 322 319 329 330 335 345 329 327 333 329 315 309 311 319 318 303 298 301 301 302 299 290 292 308 314 313 309 301 294 283 258 249 258 261 257 260 270 278 272 233 247 278 298 303 305 308 292 297 313 321 329 10 27 326 317 320 317 320 322 313 294 280 279 282 284 287 290 291
287 291 299 310 322 329 342 6 12 13 38 45 26 16 17 355 322 315 332 320 316 334 330 320 330 337 337 336 330 322 314 306 307 311 305 297 294 295 300 299 295 303 311 311 309 306 303 308 314 276 244 249 249 248 246 262 270 262 202 226 255 278 297 308 309 303 310 320 331 347 10 289 264 284 311 317 309 316 323 307 281 277 283 283 282 285 292
278 282 288 298 308 317 326 346 6 12 33 55 44 8 355 358 339 328 336 323 312 320 317 311 330 336 335 332 331 328 316 310 318 321 310 295 288 293 298 299 302 306 307 306 306 306 310 324 336 335 331 331 284 260 142 171 257 309 338 334 305 277 289 315 321 313 319 323 323 319 292 345 323 306 320 323 300 295 307 303 298 309 302 287 284 294 307
270 275 280 287 297 307 314 325 343 358 20 57 36 349 347 354 337 325 328 321 309 311 325 344 339 333 331 327 326 326 324 327 336 324 310 300 289 291 296 304 311 310 305 301 299 306 322 331 333 338 355 8 351 342 13 344 328 339 340 343 351 318 300 307 303 300 317 324 330 346 354 7 0 332 331 332 315 303 296 264 281 324 326 318 312 311 319
263 269 274 279 288 296 304 312 316 325 355 56 2 318 313 311 317 313 309 310 307 308 335 349 338 326 320 316 318 327 330 333 333 324 319 327 325 316 320 326 317 303 298 297 293 301 319 326 332 337 344 356 350 335 333 335 333 337 337 344 357 350 333 306 304 324 343 345 352 1 360 10 356 336 334 334 333 332 315 228 282 340 335 329 320 310 305
257 261 266 271 278 287 297 303 302 302 314 334 305 305 298 262 262 304 301 298 292 287 304 329 332 324 319 319 325 332 330 325 328 327 322 319 318 321 333 335 318 297 296 305 307 320 328 326 335 339 339 356 349 328 328 336 331 338 345 348 358 360 350 341 350 360 358 353 360 10 13 346 348 345 338 330 326 323 319 331 342 328 321 318 314 306 296
250 254 260 267 272 280 288 293 292 288 287 283 271 281 281 254 231 260 280 295 294 278 292 329 327 318 316 315 312 315 317 318 325 328 313 308 324 337 334 333 331 321 314 312 313 328 330 326 344 345 332 348 351 335 337 341 334 340 347 350 1 4 355 354 1 2 358 359 4 6 30 359 352 350 338 324 315 312 346 356 324 312 316 320 324 332 337
247 253 261 266 269 273 276 280 281 275 272 271 259 259 266 249 228 233 244 259 261 257 288 309 306 301 305 301 293 295 295 288 291 312 311 318 354 341 318 288 314 335 327 323 323 334 332 330 349 343 322 338 354 341 338 342 338 344 347 352 5 1 350 357 2 353 354 4 358 349 16 32 358 346 332 329 334 338 343 333 314 323 336 336 336 348 353
247 255 263 267 269 270 270 272 271 266 262 257 245 245 259 245 222 223 232 247 267 272 277 282 288 299 306 297 287 289 288 277 278 301 309 321 347 335 317 238 33 336 341 344 333 338 343 333 340 339 323 333 339 328 336 347 350 356 355 359 11 2 346 353 1 349 345 359 360 353 358 4 354 345 340 0 2 342 327 328 333 344 347 342 344 352 353
249 256 262 266 268 269 270 270 266 261 256 249 239 242 261 256 224 220 231 243 260 274 280 298 314 308 298 287 280 277 275 278 284 293 303 310 324 326 326 342 327 323 354 352 324 331 349 333 330 335 323 323 326 325 337 344 354 13 9 4 13 13 359 348 352 348 342 353 2 357 343 342 349 351 351 350 341 327 330 340 345 348 349 349 353 355 353
250 254 259 264 267 268 269 269 265 257 248 239 230 232 245 251 234 223 229 235 239 251 274 296 304 295 282 274 267 261 263 273 278 278 285 296 305 305 298 304 320 338 355 334 313 325 341 327 324 330 323 320 325 325 330 337 350 16 19 20 21 14 1 333 317 330 337 338 340 347 349 346 345 350 350 337 330 332 341 343 342 347 352 355 357 355 351
249 253 257 262 266 270 270 268 265 256 242 229 221 222 231 240 234 224 234 244 248 259 272 280 286 284 276 265 249 243 254 270 271 266 262 270 287 290 276 287 326 346 343 337 327 322 324 322 322 323 319 321 321 317 321 342 356 2 17 30 20 2 354 335 320 331 336 326 348 354 352 347 344 348 354 347 338 337 341 343 343 347 350 355 2 360 352
248 251 256 261 265 270 273 270 265 257 242 229 223 224 230 235 227 218 232 249 258 276 275 267 265 283 293 289 255 240 256 264 260 255 251 252 264 271 278 340 339 311 340 16 344 305 302 309 304 296 299 312 319 316 319 344 357 351 351 360 4 1 356 346 336 337 339 356 15 2 349 340 344 350 353 352 345 338 338 341 339 338 341 347 357 5 1
249 252 254 260 266 272 277 274 265 256 243 232 227 225 228 232 229 222 226 244 263 292 289 276 275 279 284 281 243 250 267 265 250 240 236 237 242 252 287 339 336 297 314 332 312 292 294 295 291 290 296 307 317 317 319 333 345 340 342 357 357 340 338 344 341 334 338 7 13 356 340 333 345 352 351 351 346 338 336 337 337 338 338 337 344 1 9
251 253 255 259 267 275 280 275 263 252 243 233 225 221 222 228 229 221 220 239 263 262 260 281 283 274 268 265 266 275 281 272 248 232 228 230 234 246 269 296 293 271 279 290 288 293 295 293 294 291 290 302 315 311 309 311 317 317 338 7 346 314 313 338 339 324 328 4 2 349 338 332 342 348 348 348 347 342 337 337 341 344 341 339 344 357 7
251 254 256 260 268 275 276 270 257 246 240 233 226 222 223 226 228 222 217 219 236 250 246 258 278 296 303 298 289 284 273 248 235 231 228 228 232 238 248 262 271 274 277 274 270 273 271 271 276 273 277 299 310 299 293 299 309 317 29 7 349 332 327 344 340 325 333 349 347 344 338 328 333 341 344 346 347 344 340 339 343 343 341 346 0 6 7
250 255 259 264 271 273 268 261 250 240 235 231 227 226 227 227 229 229 224 218 223 261 287 280 294 306 307 300 287 271 245 227 227 230 229 227 229 232 237 244 252 260 267 269 270 271 269 272 280 281 289 313 311 292 292 300 297 279 67 16 0 353 343 340 333 318 318 326 332 338 335 324 328 337 341 345 346 343 341 344 346 346 347 358 14 16 13
250 256 262 266 268 265 259 253 244 233 227 222 220 226 232 233 233 233 228 222 224 245 299 294 285 294 301 305 303 285 250 225 223 230 234 234 230 226 229 239 247 251 258 265 269 273 274 276 286 290 297 314 314 294 296 304 306 33 33 8 359 351 332 324 319 308 306 316 329 334 330 324 330 337 339 344 347 344 342 344 347 350 358 9 18 21 19
252 256 261 264 263 259 252 245 235 222 208 197 197 215 237 241 236 233 227 220 217 220 264 292 274 290 305 299 292 277 238 215 220 230 234 237 235 228 226 233 244 245 247 255 259 267 276 275 271 271 270 271 280 282 293 310 331 66 23 342 341 346 333 325 323 313 306 316 328 328 325 328 336 340 341 345 349 350 346 346 348 352 1 12 19 19 20
252 255 259 260 259 252 245 238 227 210 192 180 176 190 239 245 236 227 219 211 206 205 228 269 265 288 296 274 254 246 239 231 229 233 234 233 234 232 226 228 237 238 241 253 255 256 269 273 270 273 263 229 233 277 298 301 295 113 48 351 345 348 339 335 331 315 308 322 331 326 326 338 347 348 346 346 349 351 347 347 351 352 357 12 21 19 16
250 254 257 257 251 244 240 232 217 203 192 187 183 184 211 221 226 208 200 195 193 197 229 269 270 282 289 268 246 240 239 238 236 236 232 223 221 224 218 220 236 239 235 249 260 257 259 257 258 274 272 198 198 267 288 289 304 9 16 357 348 347 342 336 329 319 323 338 339 331 333 346 351 348 343 342 348 351 349 349 355 357 359 11 21 19 15
248 251 251 248 243 237 235 226 212 203 198 197 197 197 186 149 128 153 170 176 181 196 212 247 273 268 274 305 298 224 206 225 236 225 212 198 194 205 208 214 239 242 220 223 246 256 258 254 249 261 259 200 208 274 283 290 353 6 354 344 345 349 342 332 328 333 340 342 339 336 339 343 342 340 341 344 349 352 351 352 357 0 3 10 16 16 13
245 244 239 237 235 230 227 217 204 198 195 197 204 207 190 146 124 146 159 161 164 204 199 223 274 267 263 291 297 170 173 222 243 226 208 186 179 194 210 208 228 240 221 220 238 247 251 258 258 257 251 226 231 265 275 307 31 8 342 340 347 345 337 333 335 343 343 335 333 339 342 338 336 340 347 351 349 350 356 2 3 2 3 7 9 9 6
237 230 225 227 226 220 212 199 189 188 191 196 208 208 198 182 153 165 169 164 161 226 191 210 256 264 271 284 285 141 166 248 262 255 232 182 180 210 235 205 211 230 218 212 237 250 249 252 255 257 256 238 232 249 274 339 6 351 335 341 346 341 337 338 336 336 337 333 331 337 344 344 344 348 352 355 354 353 357 4 5 4 4 5 5 3 359
221 216 215 211 199 186 184 185 183 184 192 194 184 186 194 199 198 190 187 191 223 242 212 218 238 238 257 276 284 65 236 252 246 241 241 208 199 220 233 230 237 232 196 199 238 252 248 231 236 253 259 251 248 262 332 352 342 340 340 341 342 339 336 333 329 330 335 335 335 341 348 349 349 352 353 355 359 360 359 0 2 4 4 3 2 0 357
208 201 189 176 168 164 168 183 188 191 192 172 145 138 163 184 189 194 200 213 234 235 234 256 247 238 252 269 278 293 257 240 227 219 222 225 223 210 214 242 254 221 191 226 244 247 235 187 226 257 265 268 286 325 13 351 334 342 346 334 332 335 331 329 330 332 334 337 341 348 351 349 351 356 356 355 359 2 2 2 2 0 0 1 359 356 356
191 180 167 159 160 169 180 186 186 181 166 148 136 129 146 161 166 194 208 214 221 216 217 239 244 241 250 256 253 250 252 251 252 243 223 217 234 225 218 237 245 231 254 262 249 210 213 215 232 260 267 227 120 240 302 351 353 3 356 337 331 331 328 329 335 337 337 341 347 350 349 349 351 354 355 355 358 360 1 4 2 357 358 1 357 353 356
175 169 168 171 177 178 143 154 159 155 144 136 135 140 157 160 176 207 194 193 213 209 206 226 236 233 235 239 241 245 252 260 264 255 230 191 218 235 235 237 221 228 266 273 221 146 233 243 236 254 257 185 151 186 232 275 341 2 355 330 320 327 331 331 335 337 340 342 342 345 349 349 347 348 351 352 354 355 358 3 2 358 359 2 359 356 358
172 166 169 184 171 129 133 144 147 142 131 127 148 181 174 183 205 205 180 188 212 212 206 219 228 225 226 233 238 228 213 220 249 265 254 219 218 245 264 266 239 232 265 272 200 153 258 265 252 252 254 203 160 176 205 226 271 345 335 309 317 333 334 330 331 338 343 343 340 344 351 348 344 348 351 351 352 354 356 359 359 357 358 1 3 2 0
175 174 169 159 144 137 138 141 138 126 108 120 172 189 199 203 205 208 210 212 216 214 205 210 220 217 215 224 232 212 179 193 245 284 274 253 239 246 264 267 262 260 268 273 220 199 263 268 264 259 252 160 155 176 197 202 205 246 277 293 322 333 330 330 335 339 344 346 344 347 350 348 348 353 354 353 354 355 354 356 357 356 356 360 3 4 3
184 175 152 135 133 136 137 136 130 128 145 172 190 203 210 206 196 202 218 222 226 224 197 197 215 220 198 200 215 212 175 172 212 244 247 243 227 231 256 265 261 257 261 271 304 272 260 260 265 258 159 137 157 183 192 189 192 222 280 304 326 332 330 331 333 338 347 352 350 346 345 346 351 356 357 356 356 356 356 358 357 356 357 360 2 4 4
165 149 133 121 120 132 142 156 177 171 161 179 201 200 202 201 199 205 210 214 233 237 199 185 198 205 172 180 203 204 158 138 202 231 239 240 227 233 255 256 250 257 270 281 270 260 254 258 267 248 136 148 181 189 170 175 203 215 267 300 317 327 330 328 327 334 348 353 348 344 343 344 349 357 360 360 359 358 358 1 0 359 360 1 3 6 7
137 125 112 97 106 159 173 174 174 183 194 201 199 199 200 199 199 202 199 187 194 211 201 190 195 197 181 180 195 194 165 164 213 227 234 238 235 237 246 246 244 255 271 266 258 257 256 257 258 139 122 141 184 179 161 174 197 209 233 273 296 312 325 329 327 332 345 350 349 348 347 347 352 357 0 4 6 3 0 1 2 2 3 5 7 9 9
132 115 101 122 143 172 189 179 167 192 208 206 202 209 212 204 197 200 202 197 192 189 186 191 204 205 188 176 187 196 188 181 191 209 229 237 234 232 239 250 256 261 264 261 260 260 259 258 252 154 140 153 167 180 187 190 199 216 226 240 285 309 330 336 331 334 346 352 353 354 353 354 357 359 1 6 11 9 5 4 4 4 5 9 11 10 9
126 120 148 159 178 198 203 191 184 199 215 212 208 213 216 205 191 197 207 215 212 191 181 195 210 202 178 165 186 206 199 189 193 211 225 231 235 237 244 257 264 259 258 261 258 257 263 267 236 157 158 161 169 185 190 186 202 226 223 213 296 311 331 336 330 334 341 344 347 356 0 359 359 0 3 8 12 12 10 9 8 9 10 11 11 10 8
93 124 150 186 197 192 202 214 208 204 217 219 211 211 214 226 255 244 223 222 224 207 190 200 211 201 180 174 197 208 202 201 213 221 220 225 238 245 247 252 252 247 250 255 256 258 269 277 147 154 159 158 170 186 186 179 192 212 194 182 263 288 313 325 325 330 335 334 338 349 357 359 359 359 2 6 10 13 12 10 11 14 15 13 13 13 10
134 153 182 208 195 192 207 215 206 189 148 209 199 188 162 241 251 244 221 223 237 226 200 194 205 206 194 190 206 214 208 208 221 227 224 225 238 242 237 239 244 244 244 249 254 260 280 50 125 148 155 161 173 186 187 180 184 194 205 230 262 295 316 321 322 325 328 329 337 347 351 351 349 350 356 2 5 8 13 13 13 16 17 15 14 15 13
129 154 198 219 227 221 212 207 203 198 169 138 167 188 193 207 226 233 222 215 226 222 205 195 211 217 203 194 208 220 214 204 210 220 218 217 227 236 236 236 241 244 242 246 257 279 359 86 129 151 163 173 181 187 187 184 183 192 211 244 285 309 313 312 310 312 319 332 347 350 347 343 340 344 355 0 357 357 6 13 13 14 17 17 14 13 14
137 200 213 212 219 211 183 190 202 196 173 163 190 198 193 205 225 227 208 193 201 211 209 204 229 227 210 199 207 221 220 212 216 223 221 217 220 229 236 239 243 248 251 256 273 338 68 134 158 169 178 188 194 192 187 184 189 207 224 248 281 288 282 285 293 301 316 340 347 341 337 340 346 350 354 353 347 345 355 13 16 11 12 17 16 13 14
190 226 223 217 215 192 156 173 205 197 178 181 196 194 196 217 227 210 185 183 197 205 204 203 209 215 211 205 206 215 216 211 216 225 229 228 227 231 236 240 245 254 266 279 293 264 197 187 181 179 183 190 198 200 192 186 196 219 239 259 275 265 260 266 278 295 316 330 332 331 337 345 348 345 342 341 340 338 344 11 19 9 4 11 15 11 13
193 207 199 193 200 191 151 150 226 201 180 187 201 202 210 223 217 185 171 195 208 206 207 211 211 212 212 210 214 223 222 215 218 225 229 230 232 234 238 243 252 262 272 281 274 241 227 214 196 184 180 184 193 199 197 198 208 222 235 244 249 248 251 260 276 297 308 314 321 333 337 339 340 337 333 336 344 344 346 3 9 360 356 6 11 5 7